Temp
36 36 37 37 37 36 36 35 35 35 35 34 33 33 32 32 30 28 28 27 27 26 25 25 25 24 24 23 23 23 22 21 21 21 21 21 21 22 23 23 24 24
35 36 38 37 36 36 35 36 36 36 35 35 34 33 32 31 30 29 28 27 27 26 25 24 24 23 23 23 22 21 21 21 20 23 21 21 22 23 24 24 24 24
34 34 34 34 34 34 34 35 36 36 35 34 33 32 31 31 29 29 28 27 26 25 25 24 24 23 23 22 22 22 21 20 20 21 22 22 23 24 24 24 24 24
34 34 34 34 34 34 34 34 35 35 34 32 32 32 31 30 29 28 27 27 26 25 25 24 24 23 23 22 22 21 21 21 21 22 22 23 24 25 24 24 24 24
34 34 34 33 32 33 33 33 34 34 33 32 32 31 30 29 28 27 26 26 25 25 24 24 24 23 23 22 22 21 21 21 21 22 21 21 23 24 24 24 23 23
32 33 32 32 32 32 32 32 34 33 31 31 30 31 30 29 28 26 26 26 26 25 24 24 23 23 23 22 22 21 21 21 21 21 21 21 21 23 24 24 23 22
32 32 31 31 31 31 32 32 32 32 31 31 31 30 29 28 27 26 26 26 25 25 24 23 23 22 23 22 21 21 21 20 21 21 20 21 22 22 23 22 22 21
32 32 32 31 30 30 31 31 30 31 31 30 29 30 29 28 27 27 26 26 25 24 24 24 23 23 22 22 21 20 20 21 21 20 20 20 20 20 19 20 20 19
31 31 31 30 30 31 31 31 30 30 31 29 29 29 28 28 28 27 27 26 25 24 24 23 23 23 22 21 21 20 20 20 21 20 20 19 18 18 19 20 20 20
29 30 29 30 30 31 30 31 31 30 30 29 29 28 27 28 28 27 27 26 24 24 23 23 22 22 22 21 21 21 20 20 20 20 18 18 18 18 18 18 19 18
29 29 29 29 29 30 29 30 30 30 30 29 29 27 27 27 27 27 26 25 24 23 23 23 22 22 21 21 21 21 20 20 18 17 17 17 17 17 20 18 17 16
29 28 28 29 29 29 29 30 30 30 29 29 28 27 27 27 26 26 26 25 25 24 23 23 23 22 21 21 20 20 20 18 17 17 16 16 17 17 16 16 15 15
28 29 30 30 30 29 30 29 29 30 29 29 28 28 26 25 26 26 26 25 25 24 24 23 23 23 22 21 20 19 17 16 16 16 17 17 15 15 15 15 15 15
30 29 30 31 31 30 30 29 29 29 29 28 28 27 25 25 25 25 26 25 25 24 24 24 23 23 22 20 18 17 16 16 16 17 16 14 14 14 15 16 16 17
31 29 30 31 30 30 30 30 29 29 29 28 27 26 26 26 25 25 25 24 25 24 24 24 23 21 21 19 16 16 14 15 16 16 15 15 15 15 17 18 19 20
29 29 29 30 30 29 30 30 30 29 28 28 27 26 25 26 25 25 24 24 23 24 24 23 22 22 23 25 23 18 14 15 15 16 15 15 15 17 18 19 19 20
28 28 29 29 29 30 29 29 29 29 28 27 26 26 25 24 24 23 23 24 23 23 23 22 22 22 25 27 27 26 19 15 15 16 17 16 17 17 17 17 19 20
28 28 28 28 29 29 30 29 29 28 28 27 26 25 24 24 23 22 23 24 23 23 22 22 21 24 26 27 28 28 26 19 17 17 17 17 18 18 19 19 20 18
29 28 28 28 28 28 30 29 28 28 27 27 26 25 24 23 22 22 22 23 23 22 21 21 21 25 27 28 28 28 28 25 19 19 18 19 19 19 19 19 19 19
29 28 28 28 28 28 29 29 28 27 28 27 26 24 23 22 22 22 22 22 22 22 21 21 21 24 27 28 28 28 28 27 21 20 20 20 20 19 19 19 20 19
29 29 28 28 28 28 28 28 28 28 27 26 25 24 22 21 21 21 21 22 22 22 21 21 21 25 27 28 28 29 29 28 23 22 20 20 20 19 19 19 20 18
31 30 29 28 27 27 27 28 28 27 27 26 25 24 23 22 22 22 21 21 21 21 21 20 21 26 27 28 28 29 29 26 23 21 19 19 18 19 20 20 20 18
31 30 28 27 26 26 26 27 27 27 27 26 24 23 22 21 21 22 22 22 21 21 21 20 21 25 27 28 28 29 27 24 21 19 18 17 17 18 19 19 18 15
33 30 28 26 25 25 26 27 28 28 26 26 24 22 21 22 22 21 22 22 22 21 21 21 21 24 27 28 28 29 27 22 20 18 17 17 16 17 18 18 19 22
34 31 29 27 25 26 26 27 27 27 27 25 24 23 22 22 22 21 21 22 22 22 24 22 21 23 26 27 28 29 27 23 20 17 16 15 14 14 14 13 15 17
33 31 29 27 26 25 25 26 27 26 25 24 24 23 22 22 22 21 21 21 22 22 22 23 21 21 23 27 28 29 29 23 19 17 14 14 14 14 12 11 13 13
MSLP
1008.88 1009.04 1009.08 1009.24 1009.44 1009.60 1009.80 1009.96 1010.16 1010.40 1010.68 1011.04 1011.32 1011.64 1012.08 1012.36 1012.72 1012.92 1013.12 1013.36 1013.48 1013.72 1014.00 1014.24 1014.52 1014.76 1015.00 1015.36 1015.64 1015.88 1016.00 1016.08 1016.16 1016.24 1016.28 1016.32 1016.36 1016.48 1016.52 1016.52 1016.56 1016.64
1008.68 1008.76 1008.92 1009.20 1009.36 1009.56 1009.64 1009.68 1009.72 1009.88 1010.12 1010.48 1010.88 1011.40 1011.92 1012.28 1012.52 1012.64 1012.84 1013.04 1013.16 1013.36 1013.64 1013.96 1014.24 1014.48 1014.76 1015.12 1015.44 1015.64 1015.76 1015.80 1015.92 1015.92 1016.00 1016.04 1016.08 1016.12 1016.12 1016.16 1016.24 1016.32
1008.56 1008.72 1008.84 1008.96 1009.04 1009.16 1009.36 1009.52 1009.60 1009.64 1009.84 1010.16 1010.72 1011.28 1011.72 1012.04 1012.28 1012.48 1012.60 1012.72 1012.88 1013.08 1013.36 1013.64 1013.96 1014.20 1014.48 1014.84 1015.16 1015.36 1015.44 1015.56 1015.68 1015.68 1015.68 1015.68 1015.68 1015.72 1015.76 1015.88 1015.92 1016.00
1008.28 1008.36 1008.44 1008.60 1008.84 1009.08 1009.32 1009.52 1009.56 1009.60 1009.80 1010.24 1010.68 1011.16 1011.48 1011.84 1012.12 1012.32 1012.44 1012.56 1012.68 1012.84 1013.04 1013.36 1013.64 1013.92 1014.16 1014.48 1014.76 1014.96 1015.12 1015.24 1015.32 1015.40 1015.36 1015.24 1015.28 1015.36 1015.44 1015.52 1015.56 1015.56
1007.92 1008.08 1008.28 1008.48 1008.72 1008.96 1009.20 1009.32 1009.36 1009.48 1009.68 1010.00 1010.60 1011.04 1011.32 1011.68 1012.04 1012.24 1012.36 1012.44 1012.56 1012.64 1012.84 1013.08 1013.36 1013.56 1013.80 1014.12 1014.36 1014.60 1014.80 1014.92 1015.00 1015.08 1015.04 1015.00 1015.00 1015.08 1015.12 1015.16 1015.20 1015.24
1007.88 1007.96 1008.08 1008.32 1008.52 1008.76 1009.00 1009.12 1009.28 1009.60 1010.00 1010.16 1010.28 1010.60 1010.80 1011.20 1011.60 1011.88 1012.12 1012.24 1012.40 1012.44 1012.56 1012.84 1013.08 1013.24 1013.44 1013.72 1014.04 1014.24 1014.44 1014.60 1014.68 1014.76 1014.72 1014.72 1014.76 1014.72 1014.76 1014.80 1014.84 1014.96
1007.60 1007.76 1007.92 1008.12 1008.36 1008.56 1008.76 1008.96 1009.20 1009.48 1009.80 1010.00 1010.28 1010.16 1010.28 1010.68 1011.08 1011.40 1011.72 1011.96 1012.16 1012.24 1012.28 1012.52 1012.72 1012.88 1013.08 1013.40 1013.68 1013.92 1014.12 1014.28 1014.40 1014.48 1014.44 1014.36 1014.36 1014.32 1014.32 1014.44 1014.52 1014.60
1007.36 1007.52 1007.72 1007.96 1008.16 1008.32 1008.48 1008.68 1008.96 1009.24 1009.48 1009.72 1009.76 1009.72 1010.04 1010.28 1010.60 1011.00 1011.32 1011.68 1011.96 1012.04 1012.08 1012.24 1012.32 1012.48 1012.72 1013.04 1013.32 1013.60 1013.80 1013.96 1014.08 1014.20 1014.20 1014.12 1014.08 1014.00 1014.04 1014.12 1014.28 1014.44
1007.24 1007.44 1007.56 1007.72 1007.88 1008.04 1008.20 1008.40 1008.64 1008.88 1009.12 1009.28 1009.52 1009.76 1010.04 1010.28 1010.44 1010.68 1010.96 1011.32 1011.64 1011.80 1011.88 1011.96 1012.00 1012.12 1012.36 1012.64 1012.92 1013.16 1013.36 1013.52 1013.68 1013.80 1013.84 1013.84 1013.84 1013.80 1013.84 1013.88 1014.00 1014.12
1007.24 1007.32 1007.48 1007.56 1007.64 1007.68 1007.84 1008.04 1008.32 1008.60 1008.88 1009.12 1009.40 1009.84 1010.20 1010.44 1010.52 1010.52 1010.72 1010.92 1011.20 1011.48 1011.56 1011.64 1011.80 1011.88 1012.08 1012.28 1012.48 1012.68 1012.88 1013.08 1013.32 1013.44 1013.52 1013.52 1013.52 1013.56 1013.60 1013.64 1013.72 1013.80
1007.16 1007.28 1007.40 1007.44 1007.44 1007.52 1007.68 1007.88 1008.08 1008.36 1008.60 1008.76 1009.12 1009.56 1010.04 1010.40 1010.44 1010.52 1010.64 1010.72 1010.80 1011.00 1011.24 1011.32 1011.44 1011.60 1011.80 1012.00 1012.16 1012.28 1012.44 1012.68 1012.96 1013.16 1013.24 1013.28 1013.32 1013.36 1013.36 1013.44 1013.52 1013.64
1006.88 1007.12 1007.20 1007.20 1007.24 1007.36 1007.52 1007.64 1007.80 1007.96 1008.16 1008.40 1008.68 1009.08 1009.76 1010.24 1010.48 1010.56 1010.56 1010.56 1010.56 1010.72 1010.88 1011.00 1011.16 1011.36 1011.52 1011.72 1011.92 1012.08 1012.20 1012.40 1012.64 1012.88 1013.04 1013.08 1013.08 1013.12 1013.20 1013.24 1013.32 1013.44
1006.52 1006.64 1006.72 1006.88 1006.96 1007.08 1007.24 1007.44 1007.56 1007.72 1007.96 1008.08 1008.36 1008.72 1009.32 1009.92 1010.24 1010.44 1010.52 1010.60 1010.52 1010.56 1010.56 1010.60 1010.80 1011.08 1011.32 1011.56 1011.76 1011.88 1012.04 1012.20 1012.44 1012.60 1012.72 1012.80 1012.84 1012.92 1013.00 1013.08 1013.16 1013.20
1006.00 1006.08 1006.28 1006.40 1006.60 1006.84 1007.00 1007.12 1007.32 1007.48 1007.72 1007.96 1008.32 1008.56 1008.96 1009.24 1009.68 1010.00 1010.16 1010.44 1010.56 1010.56 1010.52 1010.56 1010.72 1010.88 1011.08 1011.32 1011.52 1011.68 1011.84 1012.00 1012.16 1012.32 1012.44 1012.56 1012.64 1012.68 1012.72 1012.72 1012.76 1012.72
1005.60 1005.76 1005.92 1006.08 1006.32 1006.56 1006.72 1006.80 1006.92 1007.08 1007.36 1007.64 1007.92 1008.24 1008.52 1008.64 1009.04 1009.40 1009.64 1010.00 1010.32 1010.48 1010.52 1010.56 1010.60 1010.64 1010.76 1011.00 1011.28 1011.48 1011.64 1011.76 1011.88 1012.00 1012.16 1012.32 1012.40 1012.40 1012.32 1012.28 1012.20 1012.08
1005.44 1005.48 1005.52 1005.72 1006.00 1006.16 1006.20 1006.32 1006.52 1006.72 1006.96 1007.16 1007.36 1007.64 1008.00 1008.36 1008.72 1008.92 1009.16 1009.36 1009.60 1009.88 1010.12 1010.32 1010.40 1010.40 1010.44 1010.52 1010.76 1011.04 1011.28 1011.44 1011.60 1011.72 1011.88 1012.04 1012.16 1012.12 1011.92 1011.76 1011.60 1011.48
1005.24 1005.24 1005.28 1005.40 1005.40 1005.60 1005.76 1005.96 1006.12 1006.32 1006.48 1006.72 1007.04 1007.44 1007.76 1008.04 1008.44 1008.60 1008.72 1008.80 1009.08 1009.24 1009.40 1009.72 1009.96 1010.12 1010.08 1010.08 1010.16 1010.32 1010.80 1011.08 1011.20 1011.36 1011.52 1011.68 1011.80 1011.72 1011.52 1011.36 1011.16 1010.92
1004.76 1004.84 1004.96 1004.96 1005.08 1005.12 1005.24 1005.40 1005.64 1005.92 1006.04 1006.32 1006.68 1007.08 1007.48 1007.84 1008.12 1008.32 1008.44 1008.52 1008.72 1008.96 1009.20 1009.32 1009.48 1009.60 1009.64 1009.60 1009.68 1009.76 1010.04 1010.52 1010.72 1010.92 1011.08 1011.20 1011.24 1011.20 1011.08 1010.88 1010.56 1010.48
1004.32 1004.40 1004.40 1004.52 1004.60 1004.64 1004.76 1005.00 1005.24 1005.44 1005.64 1005.88 1006.12 1006.44 1006.88 1007.24 1007.48 1007.92 1008.16 1008.24 1008.36 1008.56 1008.68 1008.84 1009.08 1009.12 1009.16 1009.16 1009.20 1009.32 1009.36 1009.76 1010.28 1010.32 1010.56 1010.60 1010.68 1010.68 1010.56 1010.40 1010.24 1010.20
1003.80 1003.88 1003.88 1003.92 1004.04 1004.24 1004.44 1004.60 1004.80 1004.92 1005.08 1005.36 1005.72 1006.16 1006.52 1006.80 1007.12 1007.40 1007.64 1007.80 1007.92 1008.16 1008.32 1008.52 1008.60 1008.68 1008.68 1008.72 1008.76 1008.88 1008.96 1009.04 1009.48 1009.80 1009.92 1010.04 1010.12 1010.20 1010.20 1010.08 1010.00 1009.92
1003.28 1003.40 1003.36 1003.40 1003.56 1003.76 1003.96 1004.16 1004.32 1004.48 1004.72 1005.04 1005.32 1005.60 1005.88 1006.12 1006.40 1006.76 1007.00 1007.28 1007.52 1007.76 1007.96 1008.12 1008.04 1008.04 1008.16 1008.24 1008.28 1008.36 1008.48 1008.60 1008.84 1009.12 1009.36 1009.52 1009.64 1009.76 1009.80 1009.76 1009.68 1009.72
1002.64 1002.80 1002.84 1002.92 1003.12 1003.36 1003.52 1003.60 1003.76 1004.00 1004.24 1004.60 1004.96 1005.28 1005.48 1005.72 1006.04 1006.32 1006.56 1006.84 1007.12 1007.36 1007.56 1007.64 1007.60 1007.56 1007.60 1007.72 1007.80 1007.92 1008.04 1008.20 1008.40 1008.68 1008.92 1009.12 1009.24 1009.32 1009.36 1009.40 1009.44 1009.52
1002.16 1002.28 1002.32 1002.40 1002.64 1002.92 1003.04 1003.08 1003.16 1003.44 1003.80 1004.20 1004.64 1004.96 1005.16 1005.32 1005.52 1005.76 1006.08 1006.44 1006.72 1006.88 1007.00 1007.00 1007.24 1007.20 1007.08 1007.16 1007.36 1007.48 1007.68 1007.88 1008.12 1008.44 1008.68 1008.84 1008.88 1008.96 1009.04 1009.12 1009.20 1009.36
1001.60 1001.72 1001.76 1001.88 1002.20 1002.36 1002.40 1002.44 1002.60 1002.88 1003.28 1003.68 1004.04 1004.44 1004.72 1004.80 1005.00 1005.40 1005.64 1005.84 1006.08 1006.28 1006.28 1006.48 1006.64 1006.80 1006.72 1006.72 1006.88 1007.04 1007.24 1007.60 1007.92 1008.24 1008.44 1008.56 1008.64 1008.68 1008.76 1008.80 1008.92 1008.96
1001.08 1001.16 1001.24 1001.36 1001.64 1001.76 1001.88 1002.00 1002.08 1002.24 1002.60 1003.16 1003.52 1003.92 1004.20 1004.44 1004.76 1005.04 1005.28 1005.44 1005.60 1005.76 1005.92 1006.12 1006.20 1006.36 1006.36 1006.32 1006.44 1006.64 1006.80 1007.20 1007.64 1007.96 1008.24 1008.40 1008.52 1008.56 1008.56 1008.60 1008.76 1008.88
1000.76 1000.76 1000.80 1000.92 1001.00 1001.20 1001.48 1001.60 1001.68 1002.00 1002.32 1002.72 1003.08 1003.40 1003.76 1004.00 1004.28 1004.52 1004.76 1004.96 1005.20 1005.44 1005.64 1005.60 1005.76 1005.92 1006.08 1006.00 1006.12 1006.24 1006.36 1006.84 1007.36 1007.72 1007.96 1008.16 1008.28 1008.36 1008.40 1008.48 1008.60 1008.80
Wind_Speed
9 8 10 10 10 9 10 10 9 10 10 9 10 10 10 9 9 11 10 9 9 9 8 8 7 7 6 6 6 5 5 5 5 4 5 5 5 6 7 7 8 8
10 10 8 8 7 7 8 9 10 10 10 10 9 8 8 8 10 10 10 10 9 9 8 8 8 7 7 6 6 6 5 5 6 5 6 6 6 7 8 9 9 8
8 8 9 10 11 11 10 9 9 9 9 9 8 7 8 8 9 9 9 10 9 9 9 8 8 7 7 7 6 6 6 6 7 7 6 7 7 7 9 9 8 9
9 10 10 10 9 9 8 8 8 8 7 7 8 8 8 7 8 10 9 10 9 9 9 9 9 8 8 8 7 6 6 7 7 6 7 6 7 8 9 8 9 9
11 10 9 8 7 7 7 8 9 8 8 8 7 8 8 8 9 9 9 9 9 9 9 7 8 7 8 8 8 7 7 7 6 7 7 6 6 6 7 7 8 9
7 7 8 8 8 8 9 9 8 8 7 8 10 8 9 10 10 10 10 10 9 9 9 8 7 7 9 8 8 8 7 7 7 7 8 8 7 7 7 7 7 6
9 9 9 8 7 8 8 8 7 7 8 8 8 10 9 11 11 11 10 9 10 8 9 9 10 9 8 8 8 8 8 8 7 8 9 8 7 8 8 6 6 6
9 8 8 7 8 8 9 8 8 8 9 10 11 12 8 11 11 10 9 10 10 10 10 10 10 10 9 8 9 9 8 7 8 9 9 8 7 7 5 4 4 6
7 8 8 9 10 9 9 9 9 10 10 8 6 5 5 6 10 10 10 10 10 10 10 10 10 10 9 9 9 10 9 9 9 9 9 9 7 7 6 6 7 7
7 7 8 9 10 10 10 10 9 10 10 6 9 4 6 7 10 11 10 11 10 10 10 10 10 9 9 9 10 10 10 10 9 8 8 8 7 6 5 6 7 7
7 7 8 10 10 9 10 10 9 9 9 6 10 6 8 7 6 8 10 10 11 11 11 10 10 9 10 10 9 9 9 8 8 7 7 7 6 6 6 5 6 6
8 7 9 11 11 10 10 10 10 10 7 5 7 9 8 7 6 4 8 9 10 10 10 10 10 10 10 10 9 9 8 7 6 6 7 7 6 6 5 5 5 6
8 9 10 10 10 10 9 9 10 10 9 12 9 12 12 8 7 6 8 10 10 9 9 8 8 8 9 9 9 8 7 7 7 7 7 6 5 5 4 5 5 6
9 9 9 10 9 8 9 9 10 9 10 7 9 11 11 13 11 9 7 7 6 7 6 7 7 7 8 9 7 7 7 7 7 7 6 5 5 5 5 6 7 9
8 7 7 8 9 9 10 11 11 11 9 10 11 11 11 10 9 9 9 8 8 8 7 7 8 9 8 8 8 8 7 8 7 7 6 6 6 6 6 8 10 11
7 7 7 8 9 10 11 11 11 10 10 11 11 11 11 12 11 9 9 10 10 10 9 9 8 7 10 16 13 8 8 7 6 7 6 5 6 7 9 10 10 9
7 8 7 8 10 10 10 11 11 10 11 11 11 11 11 11 8 10 10 10 10 10 11 9 8 7 16 19 20 19 11 8 7 7 7 7 7 9 10 8 9 9
8 8 8 9 9 11 11 11 10 11 11 11 10 11 9 10 13 9 10 9 8 6 8 9 8 13 19 20 20 20 17 9 7 7 7 7 9 9 9 9 8 5
8 8 9 9 10 10 10 9 10 11 11 11 13 11 10 11 9 10 10 9 9 10 8 9 8 15 19 20 20 21 21 15 8 8 9 8 9 9 8 8 7 6
7 8 9 10 9 9 9 10 10 12 11 10 9 10 12 10 9 11 10 9 10 9 7 10 9 14 20 20 20 21 21 17 8 10 9 9 9 8 7 8 8 7
8 8 10 9 9 9 9 10 11 10 10 9 10 11 11 11 10 10 9 9 12 11 9 11 10 17 20 21 21 21 21 18 8 7 7 8 8 7 8 8 6 5
8 9 9 9 8 8 9 10 11 11 11 9 9 9 9 7 6 7 9 9 9 9 11 10 10 19 20 21 21 21 21 12 8 8 7 7 7 7 8 6 5 5
8 9 9 9 8 8 10 11 10 10 9 8 9 8 8 8 8 8 8 9 10 10 10 8 9 17 21 21 21 22 17 8 7 6 6 7 6 6 6 6 5 3
9 8 9 8 7 10 11 10 9 8 9 8 11 9 9 9 8 7 9 9 10 12 12 10 9 17 22 21 21 22 17 8 7 7 7 7 6 5 5 5 4 12
9 8 8 8 8 10 9 10 9 9 8 8 9 9 10 9 9 9 7 7 10 11 16 14 7 13 21 20 21 21 17 8 7 6 7 6 5 4 3 3 2 3
8 8 8 8 9 8 8 9 7 6 8 9 9 8 8 8 9 9 11 10 9 11 11 13 8 8 14 21 20 21 21 9 6 7 8 7 5 5 3 3 2 1
Wind_Direction
203 200 205 205 206 202 197 198 196 196 195 193 194 196 196 194 181 185 184 180 180 179 179 180 176 174 170 175 182 191 198 201 209 214 215 212 213 210 221 228 236 240
205 205 207 205 211 209 208 203 200 197 197 195 195 189 191 185 187 183 183 182 180 179 175 175 174 173 173 180 188 192 203 203 217 218 223 221 219 222 228 234 240 243
203 203 200 200 205 207 206 204 204 202 197 193 183 185 189 188 186 186 183 181 179 176 175 175 178 179 178 179 187 197 203 209 215 222 223 218 219 223 232 235 236 241
207 204 204 206 205 206 203 201 205 202 190 175 186 189 185 187 185 184 184 181 180 180 177 177 181 181 181 186 191 204 206 213 216 217 222 222 220 228 235 234 239 243
205 206 207 208 206 204 203 207 206 200 188 180 172 179 178 178 183 185 186 186 185 181 180 177 180 179 181 189 194 204 209 215 219 219 223 224 226 229 233 233 236 243
211 208 204 203 201 199 206 210 209 196 178 184 189 181 185 183 183 188 188 188 189 185 183 181 177 179 187 190 195 205 208 215 216 223 223 222 225 224 223 225 227 232
206 203 206 202 202 205 209 210 203 193 190 191 187 198 174 184 189 189 190 191 190 187 183 183 188 184 187 190 198 205 209 214 218 222 227 227 222 226 219 218 232 242
208 205 204 199 204 205 209 204 197 194 190 192 201 202 179 192 192 189 191 191 194 194 192 192 191 189 187 190 199 205 210 212 217 222 229 231 229 230 224 219 231 246
205 204 202 205 207 208 209 204 199 199 198 200 191 183 181 187 195 193 192 192 197 198 195 196 193 191 190 192 200 203 208 213 216 218 224 229 229 233 230 226 230 232
210 209 205 209 213 212 212 206 202 204 202 204 201 172 190 200 204 199 195 196 197 199 198 196 194 192 192 196 201 202 205 212 215 219 223 226 230 234 228 224 228 240
219 212 213 215 218 216 216 210 207 202 202 184 197 185 196 203 203 199 201 199 200 199 198 198 196 193 193 199 203 203 206 207 213 220 225 226 231 232 235 228 232 238
220 217 220 221 221 219 217 212 210 209 194 171 174 188 188 204 206 196 204 205 205 202 201 201 197 197 199 200 202 203 206 207 208 215 220 229 230 233 232 235 235 239
221 221 221 224 223 221 217 216 215 210 203 208 187 200 199 199 203 206 211 214 213 206 203 194 189 192 198 201 202 204 203 202 208 213 225 229 227 225 225 229 239 245
227 225 224 225 225 220 220 219 218 216 211 193 179 200 201 205 203 201 205 209 215 212 209 198 192 193 199 201 202 200 198 204 204 214 221 225 225 226 229 241 245 249
236 228 226 225 222 220 220 220 217 216 211 206 203 204 208 203 196 195 200 204 211 215 211 201 203 207 203 199 195 198 195 203 207 212 215 224 235 240 243 243 243 242
238 232 227 220 218 220 222 220 218 214 211 208 205 204 207 208 206 194 195 200 202 206 205 207 212 211 206 204 200 193 194 197 199 203 205 220 235 246 246 240 242 246
239 236 227 223 221 222 222 220 217 214 213 211 208 206 206 202 193 197 202 201 200 198 199 205 210 209 211 215 216 209 194 197 197 204 206 218 233 241 245 249 250 246
239 236 228 229 223 224 222 219 216 214 215 211 206 205 192 195 205 200 205 204 200 186 200 206 207 210 214 218 219 219 212 196 195 201 208 217 232 239 244 248 251 241
239 234 231 228 224 224 222 217 215 216 216 211 210 197 185 195 194 196 208 207 201 200 200 206 206 214 217 220 221 222 222 209 193 199 207 217 229 238 246 253 263 265
243 235 235 230 225 221 217 219 215 217 217 211 206 197 198 196 190 198 199 200 197 197 200 211 211 214 219 222 221 223 224 220 185 200 207 220 230 238 249 255 258 259
245 238 238 234 223 217 216 218 219 222 215 205 204 203 199 195 190 194 197 197 205 208 205 211 214 212 217 222 223 223 224 223 207 201 205 219 228 236 247 253 261 252
250 243 237 233 221 213 217 220 218 217 215 206 205 207 202 185 186 188 194 197 195 194 207 211 213 215 216 220 222 223 223 222 209 205 209 217 227 232 243 252 257 260
252 242 238 231 218 214 217 220 219 214 210 199 205 198 189 189 194 194 198 196 193 195 198 204 204 217 217 218 221 222 222 216 205 203 208 218 227 228 237 246 239 226
257 237 236 230 218 218 220 220 216 211 206 196 206 200 195 194 188 188 194 191 193 203 202 202 197 215 217 218 219 221 220 209 200 202 214 219 226 230 235 237 239 266
267 244 233 229 223 225 219 217 212 209 200 190 203 205 208 202 204 207 199 195 203 206 209 210 187 207 215 218 221 222 220 203 196 195 212 219 217 230 229 212 226 281
267 248 236 227 229 227 215 215 211 197 191 194 201 203 205 202 205 209 212 213 209 209 214 213 195 189 209 217 221 222 221 202 179 191 211 215 212 216 222 226 204 227